Location: downtown San Diego
(32.7310°N, 117.1990°W)
Time: 13:40:28
(UTC-07:00)

Cosmos 1656 Rocket - Pass Details

Date: 12 July 2018
Orbit: 796 x 846 km, 71.1° (Epoch: 22 July)

Event Time Altitude Azimuth Distance (km) Brightness Sun altitude
Rises 21:04:53 0° 186° (S) 3,382 6.5 -12.7°
Reaches altitude 10° 21:07:23 10° 181° (S) 2,447 5.8 -13.1°
Maximum altitude 21:12:49 52° 106° (ESE) 1,026 3.8 -14.0°
Drops below altitude 10° 21:18:13 10° 31° (NNE) 2,433 6.2 -14.9°
Sets 21:20:41 0° 27° (NNE) 3,362 7.0 -15.3°
